• In Belarus
  • List of Countries
  • For 7 days
  • Water Temperature
  • Satellite Maps
  • Weather Map
  • Weather Widgets
  • user-avatar
    Login

    Hourly Weather Seoul

    Today, 20 March, Wednesday

    Time Temperature Precipitation Wind Pressure Humidity
    00:00 +11°C° 0 mm 1 mps 757 mmHg 79%
    01:00 +11°C° 0 mm 1 mps 757 mmHg 81%
    02:00 +10°C° 0 mm 1 mps 757 mmHg 80%
    03:00 +10°C° 0 mm 1 mps 756 mmHg 80%
    04:00 +10°C° 0 mm 1 mps 756 mmHg 80%
    05:00 +9°C° 0 mm 1 mps 756 mmHg 81%
    06:00 +10°C° 0 mm 1 mps 755 mmHg 75%
    07:00 +11°C° 0 mm 1 mps 755 mmHg 70%
    08:00 +12°C° 0 mm 2 mps 755 mmHg 63%
    09:00 +13°C° 0 mm 2 mps 754 mmHg 54%
    10:00 +15°C° 0 mm 2 mps 754 mmHg 45%
    11:00 +16°C° 0 mm 1 mps 753 mmHg 37%
    12:00 +16°C° 0 mm 1 mps 752 mmHg 37%
    13:00 +18°C° 0 mm 1 mps 752 mmHg 37%
    14:00 +14°C° 0 mm 0 mps 751 mmHg 48%
    15:00 +14°C° 1.5 mm 1 mps 750 mmHg 56%
    16:00 +13°C° 1.5 mm 1 mps 750 mmHg 64%
    17:00 +12°C° 1.5 mm 1 mps 749 mmHg 73%
    18:00 +12°C° 2.7 mm 2 mps 748 mmHg 75%
    19:00 +11°C° 2.7 mm 4 mps 747 mmHg 77%
    20:00 +10°C° 0 mm 4 mps 747 mmHg 80%
    21:00 +10°C° 1.5 mm 4 mps 746 mmHg 81%
    22:00 +10°C° 1.5 mm 3 mps 745 mmHg 81%
    23:00 +10°C° 1.5 mm 2 mps 745 mmHg 81%

    Tomorrow, 21 March, Thursday

    Time Temperature Precipitation Wind Pressure Humidity
    00:00 +10°C° 0.2 mm 2 mps 745 mmHg 82%
    01:00 +11°C° 0.2 mm 1 mps 745 mmHg 84%
    02:00 +11°C° 0.2 mm 1 mps 745 mmHg 86%
    03:00 +11°C° 0 mm 1 mps 745 mmHg 86%
    04:00 +11°C° 0 mm 1 mps 746 mmHg 86%
    05:00 +11°C° 0 mm 1 mps 746 mmHg 86%
    06:00 +10°C° 0 mm 2 mps 747 mmHg 82%
    07:00 +10°C° 0 mm 2 mps 748 mmHg 77%
    08:00 +11°C° 0 mm 3 mps 748 mmHg 73%
    09:00 +11°C° 0 mm 4 mps 749 mmHg 68%
    10:00 +12°C° 0 mm 5 mps 749 mmHg 64%
    11:00 +11°C° 0 mm 6 mps 750 mmHg 59%
    12:00 +11°C° 0 mm 7 mps 750 mmHg 56%
    13:00 +11°C° 0 mm 7 mps 750 mmHg 53%
    14:00 +11°C° 0 mm 7 mps 750 mmHg 50%
    15:00 +10°C° 0 mm 7 mps 751 mmHg 48%
    16:00 +8°C° 0 mm 7 mps 751 mmHg 46%
    17:00 +7°C° 0 mm 6 mps 752 mmHg 44%
    18:00 +7°C° 0 mm 6 mps 753 mmHg 45%
    19:00 +5°C° 0 mm 6 mps 753 mmHg 46%
    20:00 +4°C° 0 mm 6 mps 754 mmHg 47%
    21:00 +3°C° 0 mm 6 mps 755 mmHg 47%
    22:00 +3°C° 0 mm 6 mps 755 mmHg 47%
    23:00 +2°C° 0 mm 5 mps 756 mmHg 47%

    Day after tomorrow, 22 March, Friday

    Time Temperature Precipitation Wind Pressure Humidity
    00:00 +2°C° 0 mm 5 mps 756 mmHg 48%
    01:00 +1°C° 0 mm 5 mps 756 mmHg 49%
    02:00 0°C° 0 mm 4 mps 757 mmHg 49%
    03:00 0°C° 0 mm 4 mps 757 mmHg 49%
    04:00 0°C° 0 mm 4 mps 757 mmHg 49%
    05:00 0°C° 0 mm 3 mps 757 mmHg 49%
    06:00 +1°C° 0 mm 3 mps 758 mmHg 45%
    07:00 +1°C° 0 mm 3 mps 758 mmHg 42%
    08:00 +1°C° 0 mm 3 mps 758 mmHg 38%
    09:00 +3°C° 0 mm 4 mps 758 mmHg 33%
    10:00 +4°C° 0 mm 4 mps 758 mmHg 28%
    11:00 +6°C° 0 mm 5 mps 759 mmHg 23%
    12:00 +6°C° 0 mm 5 mps 758 mmHg 21%
    13:00 +7°C° 0 mm 6 mps 758 mmHg 20%
    14:00 +8°C° 0 mm 6 mps 758 mmHg 19%
    15:00 +7°C° 0 mm 6 mps 758 mmHg 21%
    16:00 +7°C° 0 mm 6 mps 758 mmHg 23%
    17:00 +5°C° 0 mm 6 mps 758 mmHg 25%
    18:00 +5°C° 0 mm 5 mps 758 mmHg 28%
    19:00 +5°C° 0 mm 5 mps 759 mmHg 30%
    20:00 +3°C° 0 mm 5 mps 760 mmHg 33%
    21:00 +4°C° 0 mm 4 mps 760 mmHg 34%
    22:00 +4°C° 0 mm 4 mps 760 mmHg 35%
    23:00 +4°C° 0 mm 3 mps 760 mmHg 37%

    23 March, Saturday

    Time Temperature Precipitation Wind Pressure Humidity
    00:00 +3°C° 0 mm 3 mps 760 mmHg 39%
    01:00 +4°C° 0 mm 2 mps 760 mmHg 42%
    02:00 +4°C° 0 mm 2 mps 760 mmHg 45%
    03:00 +4°C° 0 mm 2 mps 760 mmHg 46%
    04:00 +5°C° 0 mm 1 mps 759 mmHg 48%
    05:00 +4°C° 0 mm 1 mps 759 mmHg 50%
    06:00 +4°C° 0.1 mm 2 mps 759 mmHg 50%
    07:00 +4°C° 0.1 mm 3 mps 759 mmHg 50%
    08:00 +5°C° 0.1 mm 4 mps 760 mmHg 49%
    09:00 +6°C° 0.2 mm 5 mps 759 mmHg 45%
    10:00 +7°C° 0.2 mm 5 mps 759 mmHg 40%
    11:00 +7°C° 0.2 mm 6 mps 759 mmHg 35%
    12:00 +8°C° 0 mm 6 mps 758 mmHg 30%
    13:00 +8°C° 0 mm 7 mps 758 mmHg 24%
    14:00 +8°C° 0 mm 7 mps 758 mmHg 19%
    15:00 +6°C° 0 mm 7 mps 758 mmHg 20%
    16:00 +7°C° 0 mm 6 mps 758 mmHg 21%
    17:00 +5°C° 0 mm 6 mps 758 mmHg 23%
    18:00 +5°C° 0 mm 6 mps 759 mmHg 25%
    19:00 +5°C° 0 mm 5 mps 760 mmHg 28%
    20:00 +3°C° 0 mm 5 mps 760 mmHg 30%
    21:00 +4°C° 0 mm 4 mps 761 mmHg 30%
    22:00 +4°C° 0 mm 4 mps 761 mmHg 31%
    23:00 +3°C° 0 mm 4 mps 761 mmHg 31%

    24 March, Sunday

    Time Temperature Precipitation Wind Pressure Humidity
    00:00 +3°C° 0 mm 3 mps 761 mmHg 31%
    01:00 +3°C° 0 mm 3 mps 761 mmHg 31%
    02:00 +3°C° 0 mm 2 mps 761 mmHg 32%
    03:00 +3°C° 0 mm 2 mps 761 mmHg 33%
    04:00 +4°C° 0 mm 1 mps 761 mmHg 34%
    05:00 +4°C° 0 mm 1 mps 761 mmHg 35%
    06:00 +5°C° 0 mm 1 mps 761 mmHg 34%
    07:00 +6°C° 0 mm 1 mps 761 mmHg 33%
    08:00 +7°C° 0 mm 1 mps 761 mmHg 32%
    09:00 +7°C° 0 mm 2 mps 761 mmHg 31%
    10:00 +8°C° 0 mm 3 mps 760 mmHg 30%
    11:00 +9°C° 0 mm 3 mps 760 mmHg 29%
    12:00 +8°C° 0 mm 4 mps 759 mmHg 31%
    13:00 +9°C° 0 mm 5 mps 759 mmHg 32%
    14:00 +9°C° 0 mm 5 mps 758 mmHg 34%
    15:00 +9°C° 0 mm 5 mps 758 mmHg 37%
    16:00 +8°C° 0 mm 5 mps 758 mmHg 39%
    17:00 +8°C° 0 mm 5 mps 758 mmHg 42%
    18:00 +7°C° 0 mm 5 mps 758 mmHg 45%
    19:00 +7°C° 0 mm 4 mps 759 mmHg 47%
    20:00 +7°C° 0 mm 4 mps 759 mmHg 50%
    21:00 +6°C° 0 mm 4 mps 759 mmHg 52%
    22:00 +7°C° 0 mm 3 mps 759 mmHg 55%
    23:00 +7°C° 0 mm 3 mps 759 mmHg 58%

    25 March, Monday

    Time Temperature Precipitation Wind Pressure Humidity
    00:00 +7°C° 0 mm 3 mps 758 mmHg 60%
    01:00 +5°C° 0 mm 3 mps 758 mmHg 62%
    02:00 +6°C° 0 mm 2 mps 758 mmHg 64%
    03:00 +6°C° 0 mm 2 mps 758 mmHg 66%
    04:00 +6°C° 0 mm 2 mps 758 mmHg 67%
    05:00 +5°C° 0 mm 2 mps 758 mmHg 69%
    06:00 +6°C° 0 mm 2 mps 758 mmHg 66%
    07:00 +7°C° 0 mm 2 mps 758 mmHg 63%
    08:00 +8°C° 0 mm 3 mps 758 mmHg 60%
    09:00 +9°C° 0 mm 3 mps 758 mmHg 57%
    10:00 +11°C° 0 mm 4 mps 757 mmHg 54%
    11:00 +12°C° 0 mm 5 mps 757 mmHg 51%
    12:00 +13°C° 0 mm 5 mps 757 mmHg 50%
    13:00 +13°C° 0 mm 6 mps 756 mmHg 48%
    14:00 +14°C° 0 mm 6 mps 756 mmHg 47%
    15:00 +13°C° 0 mm 6 mps 755 mmHg 49%
    16:00 +13°C° 0 mm 6 mps 755 mmHg 52%
    17:00 +12°C° 0 mm 5 mps 755 mmHg 54%
    18:00 +12°C° 0 mm 5 mps 756 mmHg 58%
    19:00 +10°C° 0 mm 5 mps 756 mmHg 62%
    20:00 +10°C° 0 mm 4 mps 757 mmHg 66%
    21:00 +10°C° 0 mm 4 mps 756 mmHg 67%
    22:00 +10°C° 0 mm 3 mps 756 mmHg 69%
    23:00 +9°C° 0 mm 3 mps 756 mmHg 70%
    Show more